Location: Hylvaty SDH
(49.9612°N, 16.4057°E)
Time: 12:36:33
(UTC+01:00)

Tiros 1 - Pass Details

Date: 05 October 2020
Orbit: 630 x 663 km, 48.4° (Epoch: 28 October)

Event Time Altitude Azimuth Distance (km) Brightness Sun altitude
Rises 16:35:24 0° 274° (W) 2,956 11.6 15.7°
Reaches altitude 10° 16:37:44 10° 272° (W) 2,051 11.0 15.3°
Maximum altitude 16:42:26 68° 190° (S) 704 7.8 14.7°
Drops below altitude 10° 16:47:11 10° 108° (ESE) 2,068 9.4 14.0°
Sets 16:49:32 0° 106° (ESE) 2,982 10.1 13.6°
